Time,TemperatureF,DewpointF,PressureIn,WindDirection,WindDirectionDegrees,WindSpeedMPH,WindSpeedGustMPH,Humidity,HourlyPrecipIn,Conditions,Clouds,dailyrainin,SoftwareType,DateUTC
2013-01-23 00:02:00,11.0,6.0,-100.00,NNW,330,2.0,5.0,79,0.00,,,0.00,,2013-01-23 07:02:00,
2013-01-23 00:12:00,11.0,6.0,-100.00,NNW,330,2.0,5.0,79,0.00,,,0.00,,2013-01-23 07:12:00,
2013-01-23 00:42:00,12.0,7.0,-100.00,WNW,296,3.0,5.0,80,0.00,,,0.00,,2013-01-23 07:42:00,
2013-01-23 00:53:00,12.0,7.0,-100.00,WNW,296,3.0,5.0,80,0.00,,,0.00,,2013-01-23 07:53:00,
2013-01-23 01:02:00,12.0,7.0,-100.00,WNW,296,3.0,5.0,80,0.00,,,0.00,,2013-01-23 08:02:00,
2013-01-23 01:12:00,12.0,7.0,-100.00,WNW,296,3.0,5.0,80,0.00,,,0.00,,2013-01-23 08:12:00,
2013-01-23 01:42:00,12.0,7.0,-100.00,SE,126,1.0,4.0,79,0.00,,,0.00,,2013-01-23 08:42:00,
2013-01-23 01:53:00,12.0,7.0,-100.00,SE,126,1.0,4.0,79,0.00,,,0.00,,2013-01-23 08:53:00,
2013-01-23 02:02:00,12.0,7.0,-100.00,SE,126,1.0,4.0,79,0.00,,,0.00,,2013-01-23 09:02:00,
2013-01-23 02:12:00,12.0,7.0,-100.00,SE,126,1.0,4.0,79,0.00,,,0.00,,2013-01-23 09:12:00,
2013-01-23 02:43:00,14.0,9.0,-100.00,SW,223,2.0,5.0,81,0.00,,,0.00,,2013-01-23 09:43:00,
2013-01-23 02:53:00,14.0,9.0,-100.00,SW,223,2.0,5.0,81,0.00,,,0.00,,2013-01-23 09:53:00,
2013-01-23 03:02:00,14.0,9.0,-100.00,SW,223,2.0,5.0,81,0.00,,,0.00,,2013-01-23 10:02:00,
2013-01-23 03:12:00,14.0,9.0,-100.00,SW,223,2.0,5.0,81,0.00,,,0.00,,2013-01-23 10:12:00,
2013-01-23 03:42:00,13.0,9.0,-100.00,SW,220,5.0,7.0,84,0.00,,,0.00,,2013-01-23 10:42:00,
2013-01-23 03:53:00,13.0,9.0,-100.00,SW,220,5.0,7.0,84,0.00,,,0.00,,2013-01-23 10:53:00,
2013-01-23 04:02:00,13.0,9.0,-100.00,SW,220,5.0,7.0,84,0.00,,,0.00,,2013-01-23 11:02:00,
2013-01-23 04:12:00,13.0,9.0,-100.00,SW,220,5.0,7.0,84,0.00,,,0.00,,2013-01-23 11:12:00,
2013-01-23 04:42:00,12.0,8.0,-100.00,NW,321,2.0,4.0,82,0.00,,,0.00,,2013-01-23 11:42:00,
2013-01-23 04:53:00,12.0,8.0,-100.00,NW,321,2.0,4.0,82,0.00,,,0.00,,2013-01-23 11:53:00,
2013-01-23 05:03:00,12.0,8.0,-100.00,NW,321,2.0,4.0,82,0.00,,,0.00,,2013-01-23 12:03:00,
2013-01-23 05:12:00,12.0,8.0,-100.00,NW,321,2.0,4.0,82,0.00,,,0.00,,2013-01-23 12:12:00,
2013-01-23 05:43:00,12.0,7.0,-100.00,West,278,2.0,3.0,78,0.00,,,0.00,,2013-01-23 12:43:00,
2013-01-23 05:53:00,12.0,7.0,-100.00,West,278,2.0,3.0,78,0.00,,,0.00,,2013-01-23 12:53:00,
2013-01-23 06:03:00,12.0,7.0,-100.00,West,278,2.0,3.0,78,0.00,,,0.00,,2013-01-23 13:03:00,
2013-01-23 06:42:00,12.0,8.0,-100.00,South,186,2.0,4.0,81,0.00,,,0.00,,2013-01-23 13:42:00,
2013-01-23 06:53:00,12.0,8.0,-100.00,South,186,2.0,4.0,81,0.00,,,0.00,,2013-01-23 13:53:00,
2013-01-23 07:02:00,12.0,8.0,-100.00,South,186,2.0,4.0,81,0.00,,,0.00,,2013-01-23 14:02:00,
2013-01-23 07:12:00,12.0,8.0,-100.00,South,186,2.0,4.0,81,0.00,,,0.00,,2013-01-23 14:12:00,
2013-01-23 07:42:00,11.0,6.0,-100.00,SSW,213,2.0,5.0,79,0.00,,,-99.99,,2013-01-23 14:42:00,
2013-01-23 07:53:00,11.0,6.0,-100.00,SSW,213,2.0,5.0,79,0.00,,,-99.99,,2013-01-23 14:53:00,
2013-01-23 08:02:00,11.0,6.0,-100.00,SSW,213,2.0,5.0,79,0.00,,,-99.99,,2013-01-23 15:02:00,
2013-01-23 08:12:00,11.0,6.0,-100.00,SSW,213,2.0,5.0,79,0.00,,,-99.99,,2013-01-23 15:12:00,
2013-01-23 08:43:00,11.0,6.0,-100.00,North,352,1.0,3.0,80,0.00,,,0.00,,2013-01-23 15:43:00,
2013-01-23 08:53:00,11.0,6.0,-100.00,North,352,1.0,3.0,80,0.00,,,0.00,,2013-01-23 15:53:00,
2013-01-23 09:03:00,11.0,6.0,-100.00,North,352,1.0,3.0,80,0.00,,,0.00,,2013-01-23 16:03:00,
2013-01-23 09:12:00,11.0,6.0,-100.00,North,352,1.0,3.0,80,0.00,,,0.00,,2013-01-23 16:12:00,
2013-01-23 10:03:00,13.0,8.0,-100.00,SE,141,1.0,4.0,80,-99.99,,,0.00,,2013-01-23 17:03:00,
2013-01-23 10:12:00,13.0,8.0,-100.00,SE,141,1.0,4.0,80,-99.99,,,0.00,,2013-01-23 17:12:00,
2013-01-23 10:42:00,16.0,10.0,-100.00,ENE,78,1.0,3.0,76,0.00,,,0.00,,2013-01-23 17:42:00,
2013-01-23 10:53:00,16.0,10.0,-100.00,ENE,78,1.0,3.0,76,0.00,,,0.00,,2013-01-23 17:53:00,
2013-01-23 11:03:00,16.0,10.0,-100.00,ENE,78,1.0,3.0,76,0.00,,,0.00,,2013-01-23 18:03:00,
2013-01-23 11:12:00,16.0,10.0,-100.00,ENE,78,1.0,3.0,76,0.00,,,0.00,,2013-01-23 18:12:00,
2013-01-23 11:43:00,20.0,12.0,-100.00,NE,40,3.0,5.0,71,0.00,,,0.00,,2013-01-23 18:43:00,
2013-01-23 11:53:00,20.0,12.0,-100.00,NE,40,3.0,5.0,71,0.00,,,0.00,,2013-01-23 18:53:00,
2013-01-23 12:02:00,20.0,12.0,-100.00,NE,40,3.0,5.0,71,0.00,,,0.00,,2013-01-23 19:02:00,
2013-01-23 12:12:00,20.0,12.0,-100.00,NE,40,3.0,5.0,71,0.00,,,0.00,,2013-01-23 19:12:00,
2013-01-23 12:43:00,22.0,13.0,-100.00,North,353,3.0,4.0,67,0.00,,,0.00,,2013-01-23 19:43:00,
2013-01-23 12:53:00,22.0,13.0,-100.00,North,353,3.0,4.0,67,0.00,,,0.00,,2013-01-23 19:53:00,
2013-01-23 13:03:00,22.0,13.0,-100.00,North,353,3.0,4.0,67,0.00,,,0.00,,2013-01-23 20:03:00,
2013-01-23 13:12:00,22.0,13.0,-100.00,North,353,3.0,4.0,67,0.00,,,0.00,,2013-01-23 20:12:00,
2013-01-23 13:42:00,24.0,14.0,-100.00,NNE,15,3.0,5.0,65,0.00,,,0.00,,2013-01-23 20:42:00,
2013-01-23 13:53:00,24.0,14.0,-100.00,NNE,15,3.0,5.0,65,0.00,,,0.00,,2013-01-23 20:53:00,
2013-01-23 14:02:00,24.0,14.0,-100.00,NNE,15,3.0,5.0,65,0.00,,,0.00,,2013-01-23 21:02:00,
2013-01-23 14:12:00,24.0,14.0,-100.00,NNE,15,3.0,5.0,65,0.00,,,0.00,,2013-01-23 21:12:00,
2013-01-23 14:42:00,26.0,15.0,-100.00,NE,47,4.0,7.0,63,0.00,,,0.00,,2013-01-23 21:42:00,
2013-01-23 14:53:00,26.0,15.0,-100.00,NE,47,4.0,7.0,63,0.00,,,0.00,,2013-01-23 21:53:00,
2013-01-23 15:02:00,26.0,15.0,-100.00,NE,47,4.0,7.0,63,0.00,,,0.00,,2013-01-23 22:02:00,
2013-01-23 15:12:00,26.0,15.0,-100.00,NE,47,4.0,7.0,63,0.00,,,0.00,,2013-01-23 22:12:00,
2013-01-23 15:42:00,28.0,15.0,-100.00,NE,38,4.0,6.0,56,0.00,,,0.00,,2013-01-23 22:42:00,
2013-01-23 15:53:00,28.0,15.0,-100.00,NE,38,4.0,6.0,56,0.00,,,0.00,,2013-01-23 22:53:00,
2013-01-23 16:02:00,28.0,15.0,-100.00,NE,38,4.0,6.0,56,0.00,,,0.00,,2013-01-23 23:02:00,
2013-01-23 16:12:00,28.0,15.0,-100.00,NE,38,4.0,6.0,56,0.00,,,0.00,,2013-01-23 23:12:00,
2013-01-23 16:42:00,27.0,16.0,-100.00,NE,34,5.0,6.0,62,0.00,,,0.01,,2013-01-23 23:42:00,
2013-01-23 16:53:00,27.0,16.0,-100.00,NE,34,5.0,6.0,62,0.00,,,0.01,,2013-01-23 23:53:00,
2013-01-23 17:02:00,27.0,16.0,-100.00,NE,34,5.0,6.0,62,0.00,,,0.01,,2013-01-24 00:02:00,
2013-01-23 17:12:00,27.0,16.0,-100.00,NE,34,5.0,6.0,62,0.00,,,0.01,,2013-01-24 00:12:00,
2013-01-23 17:42:00,26.0,19.0,-100.00,ENE,76,4.0,6.0,73,-99.99,,,-99.99,,2013-01-24 00:42:00,
2013-01-23 17:53:00,26.0,19.0,-100.00,ENE,76,4.0,6.0,73,-99.99,,,-99.99,,2013-01-24 00:53:00,
2013-01-23 18:02:00,26.0,19.0,-100.00,ENE,76,4.0,6.0,73,-99.99,,,-99.99,,2013-01-24 01:02:00,
2013-01-23 18:12:00,26.0,19.0,-100.00,ENE,76,4.0,6.0,73,-99.99,,,-99.99,,2013-01-24 01:12:00,
2013-01-23 18:42:00,27.0,18.0,-100.00,NNE,16,4.0,6.0,69,0.00,,,-99.99,,2013-01-24 01:42:00,
2013-01-23 18:52:00,27.0,18.0,-100.00,NNE,16,4.0,6.0,69,0.00,,,-99.99,,2013-01-24 01:52:00,
2013-01-23 19:02:00,27.0,18.0,-100.00,NNE,16,4.0,6.0,69,0.00,,,-99.99,,2013-01-24 02:02:00,
2013-01-23 19:12:00,27.0,18.0,-100.00,NNE,16,4.0,6.0,69,0.00,,,-99.99,,2013-01-24 02:12:00,
2013-01-23 20:02:00,43.0,25.0,-100.00,South,171,10.0,15.0,50,0.01,,,0.00,,2013-01-24 03:02:00,
2013-01-23 20:12:00,43.0,25.0,-100.00,South,171,10.0,15.0,50,0.01,,,0.00,,2013-01-24 03:12:00,
2013-01-23 20:43:00,44.0,22.0,-100.00,SSE,158,7.0,16.0,41,0.00,,,0.00,,2013-01-24 03:43:00,
2013-01-23 20:53:00,44.0,22.0,-100.00,SSE,158,7.0,16.0,41,0.00,,,0.00,,2013-01-24 03:53:00,
2013-01-23 21:12:00,44.0,22.0,-100.00,SSE,158,7.0,16.0,41,0.00,,,0.00,,2013-01-24 04:12:00,
2013-01-23 21:42:00,43.0,17.0,-100.00,SSE,154,7.0,10.0,35,-99.99,,,-99.99,,2013-01-24 04:42:00,
2013-01-23 21:53:00,43.0,17.0,-100.00,SSE,154,7.0,10.0,35,-99.99,,,-99.99,,2013-01-24 04:53:00,
2013-01-23 22:12:00,43.0,17.0,-100.00,SSE,154,7.0,10.0,35,-99.99,,,-99.99,,2013-01-24 05:12:00,
2013-01-23 22:42:00,41.0,19.0,-100.00,SSW,197,4.0,8.0,42,0.01,,,0.00,,2013-01-24 05:42:00,
2013-01-23 22:53:00,41.0,19.0,-100.00,SSW,197,4.0,8.0,42,0.01,,,0.00,,2013-01-24 05:53:00,
2013-01-23 23:02:00,41.0,19.0,-100.00,SSW,197,4.0,8.0,42,0.01,,,0.00,,2013-01-24 06:02:00,
2013-01-23 23:12:00,41.0,19.0,-100.00,SSW,197,4.0,8.0,42,0.01,,,0.00,,2013-01-24 06:12:00,
2013-01-23 23:42:00,43.0,17.0,-100.00,South,190,11.0,20.0,35,0.00,,,0.00,,2013-01-24 06:42:00,
2013-01-23 23:52:00,43.0,17.0,-100.00,South,190,11.0,20.0,35,0.00,,,0.00,,2013-01-24 06:52:00,